DECAYED

CZ-2F R/B, 66646 (Decayed)

Orbit data source: Space-Track

CZ-2F R/B, 66646 was space debris in LEO originally from a launch on Tue, 25 Nov 2025 UTC launched from the Jiuquan Satellite Launch Center, China (JSC). Debris objects in space refer to the collection of defunct objects orbiting the Earth. Examples of debris include non-operational satellites, rocket bodies, and fragments generated from explosions, collisions, or faulty payload assembly.

Not visible in the next 10 days
Identifier
66646, 2025-272B
Orbit
Decayed
Country
Flag of CNCN / PRC
Related business
Manufacturer
CALT?
Mission
Decayed spacecraft
Bus & Motor
CZ-2F, Unknown motor
Mass
5,500 kg wet, 5,500 kg dry
Launch date (UTC)
2025-11-25 (7 months ago)
Launch vehicle
Unknown
Launch site
Jiuquan Satellite Launch Center, China (JSC)
Object type
Payload
Rocket body
Debris
Shape & HBR
Cyl, 8.0 m
Radar Cross Section
44.450 m², Large (>1 m²)

Expand to show TLE details & history
Last TLE update: 6 months ago

TLE from 6 months ago
0 CZ-2F R/B
1 66646U 25272B   25341.54184061  .11903621  80762-5  15075-3 0  9992
2 66646  41.4535  41.9834 0022140 229.6731 130.2205 16.47453798  2009
Epoch: 2025-12-07T13:00Z
TLE epoch observation values (Epoch: 2025-12-07T13:00:15.028Z)
Latitude
0.00002°
Longitude
130.36707°
Altitude
154.976 km
Speed
7.81 km/s
True Right ascension
02h 47m 56s
True Declination
0° 00' 00"
Sunlit
Object was in full shadow at epoch
Visualization orbit readout
Latitude
Unknown
Longitude
Unknown
Altitude
Unknown
Speed
Unknown
Apparent Right ascension
Unknown
Apparent Declination
Unknown
Sunlit
N/A
Visualization observer readout
Local Sidereal Time
07:12:15
Azimuth
Unknown
Elevation
Unknown
Doppler factor
Unknown
Orbital elements
Apogee altitude
162.816 km
Perigee altitude
133.917 km
Semi-major axis
6,526.504 km
Eccentricity
0.00221
Inclination
41.4535°
RAAN
41.9834°
Arg. of periapsis
229.6731°
True anomaly
130.41387°
Mean anomaly
130.2205°
Eccentric anomaly
130.31722°
Mean motion
4.11644 °/min
Orbital period
87.45 mins
BSTAR
0.00015075
Loading maneuver chart data...
Computing Atmospheric mass density...
Loading historical data...
Loading historical data...
Loading historical data...
Loading historical data...
Loading historical data...
Loading historical data...
Loading historical data...
Other satellites on launch #272 in the year 2025 (2025-11-25 UTC)

Documentation

Showing up to 5 results
|